Regional Weather Roundup
Issued by NWS Kansas City/Pleasant Hill, MO

Home | Current Version | Previous Version | Graphics & Text | Print | Product List | Glossary Off
Versions: 1 2 3 4 5 6 7 8 9 10 11 12 13 14 15 16 17 18 19 20 21 22 23 24 25 26 27 28 29 30 31 32 33 34 35 36 37 38 39 40 41 42 43 44 45 46 47 48 49 50

000
ASUS43 KEAX 291210
RWREAX

WEATHER ROUNDUP FOR EASTERN KANSAS AND NORTHWEST MISSOURI
NATIONAL WEATHER SERVICE KANSAS CITY/PLEASANT HILL MO
700 AM CDT SAT APR 29 2017

KSZ040-057-103>105-MOZ028-029-037-043-291300-
...KANSAS CITY METROPOLITAN AREA...

CITY           SKY/WX    TMP DP  RH WIND       PRES   REMARKS
K.C. INTL      LGT RAIN  46  45  96 NE18      29.90S FOG
6HR MIN TEMP:  44; 6HR MAX TEMP:  46; 6HR PCP:  0.01;

K.C. DOWNTOWN  LGT RAIN  48  46  93 NE13      29.88S
6HR MIN TEMP:  46; 6HR MAX TEMP:  48; 6HR PCP:  0.06;

LEES SUMMIT    RAIN      47  47 100 NE20      29.84F FOG
6HR MIN TEMP:  45; 6HR MAX TEMP:  46; 6HR PCP:  0.04;

OLATHE - IXD   LGT RAIN  46  46 100 NE16      29.84F
6HR MIN TEMP:  44; 6HR MAX TEMP:  46; 6HR PCP:  0.12;

OLATHE - OJC   LGT RAIN  45  45 100 NE14G28   29.82F
6HR MIN TEMP:  44; 6HR MAX TEMP:  45; 6HR PCP:  0.12;

LAWRENCE       LGT RAIN  47  46  97 N12G20    29.89S FOG

$$

MOZ001>008-011>017-020>025-030>033-038>040-044>046-053-054-291300-
...NORTHERN AND CENTRAL MISSOURI...

CITY           SKY/WX    TMP DP  RH WIND       PRES   REMARKS
ST. JOSEPH     CLOUDY    45  44  97 NE14      29.97R
6HR MIN TEMP:  45; 6HR MAX TEMP:  46;

MOSBY          LGT RAIN  46  45  93 NE9       29.90F
WHITEMAN AFB   TSTM      50  50 100 NE13      29.82R FOG
                                      6HR PCP:  0.20;

CLINTON        TSTM      52  52 100 NE13G21   29.79R
SEDALIA        TSTM      51  51 100 NE7       29.87R
6HR MIN TEMP:  51; 6HR MAX TEMP:  53; 6HR PCP:  0.10;

WARSAW         NOT AVBL
CHILLICOTHE      N/A     47  45  93 NE14G23   29.94F
6HR MIN TEMP:  46; 6HR MAX TEMP:  47;

KIRKSVILLE     LGT RAIN  46  32  58 NE17      29.95F
6HR MIN TEMP:  45; 6HR MAX TEMP:  46; 6HR PCP:  0.03;


$$

MOZ041-047>049-056>058-063>065-088>090-097-291300-
...EASTERN AND SOUTHERN MISSOURI...

CITY           SKY/WX    TMP DP  RH WIND       PRES   REMARKS
ST. LOUIS INTL TSTM      58  56  93 E14       29.86F
6HR MIN TEMP:  58; 6HR MAX TEMP:  59; 6HR PCP:  0.67;

SPIRIT OF STL  CLOUDY    58  57  97 E13       29.84F THUNDER
COLUMBIA       LGT RAIN  53  53 100 NE17G26   29.82F
JEFFERSON CITY CLOUDY    60  55  83 E7        29.81R
ROLLA          LGT RAIN  57  32  38 E15G24    29.79F
OSAGE BEACH    CLOUDY    57  56  96 NE10      29.80S
SPRINGFIELD    TSTM      60  59  96 E16       29.70S VSB 1
BRANSON        FOG       61  61 100 N8        29.74R VSB 1
JOPLIN         CLOUDY    57  56  96 NE14      29.71S
WEST PLAINS    TSTM      62  60  93 NE22G31   29.76F FOG

$$

IAZ060-094-KSZ022-034>040-054-083-096-NEZ052-066-093-291300-
...KANSAS...SOUTHEAST NEBRASKA AND IOWA...

CITY           SKY/WX    TMP DP  RH WIND       PRES   REMARKS
TOPEKA         LGT RAIN  46  46 100 N12       29.90F FOG
6HR MIN TEMP:  45; 6HR MAX TEMP:  46; 6HR PCP:  0.07;

MANHATTAN      LGT RAIN  44  41  89 NE17G24   29.97R
EMPORIA        LGT RAIN  45  45 100 N14G21    29.87R
CHANUTE        LGT RAIN  51  49  92 NE12G35   29.74F
WICHITA        TSTM      44  43  96 N24G32    29.83S WCI  35
OMAHA          LGT RAIN  43  34  70 N9        30.12R
LINCOLN        LGT RAIN  41  37  86 NE15      30.06F WCI  33
FALLS CITY     CLOUDY    44  39  82 NE16G22   30.00R
LAMONI         CLOUDY    43  41  93 NE16G26   29.98F
DES MOINES     CLOUDY    45  35  68 NE16G24   30.09R

$$




USA.gov is the U.S. government's official web portal to all federal, state and local government web resources and services.